Portada
METAR-TAF:

METAR-TAF

Aeroports :

Penn Valley Airport

Selinsgrove, Pennsilvània, Estats Units d'Amèrica

latitud: 40-49-09N, longitud: 076-51-58W, altitud: 137 m

Observació

L'informe es va fer fa 30 minuts, a les 14:53 UTC
Vent 5 kt del Sud
Temperatura 10°C
Humitat 66%
Pressió 1008 hPa
Visibilitat: 16.1 km
Cel ennuvolat a una alçada de 3300 ft
Cel cobert a una alçada de 4200 ft

METAR: KSEG 221453Z AUTO 17005KT 10SM BKN033 OVC042 10/04 A2977 RMK AO2 SLP083 T01000039 56004

Hora: 10:23 (15:23 UTC)


TAF: manca

Observacions i pronòstics meteorològics de més de 4000 aeroports (METAR i TAF).

Les estacions disponibles són els punts grocs i vermells al mapa.

Posi el ratolí al punt desitjat per veure el nom de l'estació.

Feu clic per veure les observacions i els pronòstics meteorològics.

Per canviar el mapa: feu clic els botons verds amb una creu de color negre per apropar; al botó verd amb un guió per allunyar la imatge; o en les fletxes verdes per a mapes adjacents.


METAR-TAF: